Change the Weather History Date:

Monday, February 3, 2014

  Actual Average (KCEW) Record (KCEW)
Temperature  
Mean Temperature 60 °F -  
Max Temperature 69 °F 61 °F 78 °F (1990)
Min Temperature 50 °F 39 °F 10 °F (1951)
Degree Days  
Heating Degree Days 6    
Growing Degree Days 10 (Base 50)    
Moisture  
Dew Point 52 °F    
Average Humidity 79    
Maximum Humidity 88    
Minimum Humidity 67    
Precipitation  
Precipitation 0.14 in - - ()
Sea Level Pressure  
Sea Level Pressure 30.06 in    
Wind  
Wind Speed 8 mph (North)    
Max Wind Speed 14 mph    
Max Gust Speed 18 mph    
Visibility 9 miles    
Events Rain    
Averages and records for this station are not official NWS values.
T = Trace of Precipitation, MM = Missing Value Source: NWS Daily Summary

Daily Weather History Graph

Daily Weather History Graph

Search for Another Location

Airport or City:

Trip Planner

Search our weather history database for the weather conditions in past years. The results will help you decide how hot, cold, wet, or windy it might be!

Date:

Astronomy

Feb. 03, 2014 Rise Set
Actual Time 6:36 AM CST 5:22 PM CST
Civil Twilight 6:11 AM CST 5:47 PM CST
Nautical Twilight 5:42 AM CST 6:16 PM CST
Astronomical Twilight 5:13 AM CST 6:45 PM CST
Moon 8:58 AM CST (2/3) 9:50 PM CST (2/3)
Length of Visible Light 11h 36m
Length of Day
10h 45m
Waxing Crescent, 20% of the Moon is Illuminated
Feb 3
Waxing Crescent
Feb 6
First Quarter
Feb 14
Full
Feb 22
Last Quarter
Mar 1
New

Hourly Weather History & Observations

Time (CST) Temp. Dew Point Humidity Pressure Visibility Wind Dir Wind Speed Gust Speed Precip Events Conditions
12:56 AM 68.0 °F 62.1 °F 81% 29.98 in 10.0 mi SW 6.9 mph - N/A   Overcast
1:56 AM 68.0 °F 63.0 °F 84% 29.96 in 10.0 mi Variable 5.8 mph - N/A   Overcast
2:16 AM 68.0 °F 62.6 °F 83% 29.98 in 10.0 mi SW 5.8 mph - N/A   Overcast
2:56 AM 68.0 °F 63.0 °F 84% 29.96 in 10.0 mi SW 8.1 mph - N/A   Overcast
3:56 AM 69.1 °F 64.0 °F 84% 29.96 in 9.0 mi SW 6.9 mph - N/A   Overcast
4:05 AM 69.8 °F 64.4 °F 83% 29.96 in 8.0 mi SW 6.9 mph - N/A   Overcast
4:56 AM 69.1 °F 64.0 °F 84% 29.96 in 9.0 mi WSW 5.8 mph - N/A   Overcast
5:29 AM 69.8 °F 64.4 °F 83% 29.99 in 2.0 mi NNW 10.4 mph - 0.07 in Rain Rain
5:40 AM 66.2 °F 62.6 °F 88% 30.01 in 4.0 mi NNW 10.4 mph 18.4 mph 0.10 in Rain Rain
5:50 AM 66.2 °F 60.8 °F 83% 30.01 in 5.0 mi NNW 9.2 mph - 0.11 in Rain Light Rain
5:56 AM 64.9 °F 60.1 °F 84% 30.00 in 10.0 mi NW 6.9 mph - 0.11 in Rain Light Rain
6:56 AM 63.0 °F 57.9 °F 84% 30.03 in 10.0 mi North 4.6 mph - 0.01 in   Overcast
7:08 AM 62.6 °F 57.2 °F 82% 30.04 in 10.0 mi North 5.8 mph - N/A   Overcast
7:23 AM 62.6 °F 57.2 °F 82% 30.05 in 10.0 mi North 9.2 mph - N/A   Overcast
7:31 AM 62.6 °F 55.4 °F 77% 30.05 in 10.0 mi North 6.9 mph - N/A   Overcast
7:43 AM 62.6 °F 55.4 °F 77% 30.06 in 10.0 mi North 9.2 mph - N/A   Overcast
7:56 AM 61.0 °F 55.9 °F 83% 30.07 in 10.0 mi North 10.4 mph - N/A   Overcast
8:06 AM 60.8 °F 55.4 °F 82% 30.08 in 8.0 mi North 11.5 mph - N/A   Overcast
8:14 AM 59.0 °F 53.6 °F 82% 30.08 in 2.5 mi North 10.4 mph - 0.01 in Rain Rain
8:22 AM 57.2 °F 53.6 °F 88% 30.09 in 5.0 mi NNE 11.5 mph - 0.01 in Rain Light Rain
8:38 AM 55.4 °F 50.0 °F 82% 30.10 in 10.0 mi North 12.7 mph - 0.01 in   Overcast
8:56 AM 53.1 °F 46.9 °F 80% 30.10 in 9.0 mi North 13.8 mph - 0.01 in Rain Light Rain
9:05 AM 51.8 °F 46.4 °F 82% 30.11 in 7.0 mi NNE 9.2 mph - 0.01 in Rain Light Rain
9:37 AM 51.8 °F 46.4 °F 82% 30.12 in 10.0 mi NNE 5.8 mph - 0.01 in   Overcast
9:56 AM 53.1 °F 46.9 °F 80% 30.11 in 10.0 mi North 10.4 mph - 0.01 in   Overcast
10:14 AM 53.6 °F 48.2 °F 82% 30.12 in 10.0 mi Variable 4.6 mph - N/A   Overcast
10:56 AM 54.0 °F 46.9 °F 77% 30.11 in 10.0 mi North 5.8 mph - N/A   Overcast
11:56 AM 55.0 °F 46.9 °F 74% 30.10 in 10.0 mi North 9.2 mph - N/A   Overcast
12:56 PM 57.0 °F 48.0 °F 72% 30.07 in 10.0 mi NNE 11.5 mph - N/A   Overcast
1:29 PM 57.2 °F 46.4 °F 67% 30.07 in 10.0 mi North 10.4 mph - N/A   Overcast
1:56 PM 57.0 °F 46.9 °F 69% 30.06 in 10.0 mi NNE 8.1 mph - N/A   Overcast
2:56 PM 57.9 °F 46.9 °F 67% 30.06 in 10.0 mi North 6.9 mph - N/A   Overcast
3:56 PM 55.9 °F 46.9 °F 72% 30.08 in 10.0 mi North 8.1 mph - N/A   Overcast
4:56 PM 55.0 °F 46.0 °F 72% 30.09 in 10.0 mi NNE 9.2 mph - N/A   Overcast
5:56 PM 54.0 °F 45.0 °F 72% 30.09 in 10.0 mi NNE 6.9 mph - N/A   Overcast
6:56 PM 53.1 °F 45.0 °F 74% 30.10 in 10.0 mi North 6.9 mph - N/A   Overcast
7:11 PM 53.6 °F 44.6 °F 72% 30.11 in 10.0 mi NNE 6.9 mph - N/A   Overcast
7:56 PM 52.0 °F 44.1 °F 74% 30.12 in 10.0 mi North 6.9 mph - N/A   Overcast
8:56 PM 51.1 °F 44.1 °F 77% 30.13 in 10.0 mi NNE 6.9 mph - N/A   Mostly Cloudy
9:23 PM 50.0 °F 42.8 °F 76% 30.13 in 10.0 mi NNE 6.9 mph - N/A   Mostly Cloudy
9:56 PM 50.0 °F 43.0 °F 77% 30.12 in 10.0 mi NNE 5.8 mph - N/A   Overcast
10:56 PM 50.0 °F 42.1 °F 74% 30.12 in 10.0 mi NE 5.8 mph - N/A   Overcast
11:56 PM 50.0 °F 42.1 °F 74% 30.11 in 10.0 mi NE 5.8 mph - N/A   Overcast